GCFIZ FPPR-FGSL

Flight info

Callsign GCFIZ
Flight time 1h 2m
Altitude 5500
Route FPPR FGSL
Aircraft C310/L-G/L

Departure

Time 2026-05-04 18:07
Airport Principe Airport (FPPR)

Arrival

Time 2026-05-04 19:09
Airport Malabo International Airport (FGSL)
Time Latitude Longitude Altitude Speed Heading
2026-05-04 17:35 1.66572 7.41193 593 ft 0 kts 234°
2026-05-04 18:02 1.66567 7.41190 593 ft 4 kts 194°
2026-05-04 18:02 1.66510 7.41190 593 ft 7 kts 207°
2026-05-04 18:03 1.66490 7.41168 593 ft 0 kts 252°
2026-05-04 18:05 1.66488 7.41160 593 ft 5 kts 255°
2026-05-04 18:05 1.66479 7.41110 593 ft 2 kts 206°
2026-05-04 18:05 1.66474 7.41110 593 ft 0 kts 186°
2026-05-04 18:06 1.65832 7.41115 620 ft 93 kts 181°
2026-05-04 18:06 1.65153 7.41160 725 ft 104 kts 172°
2026-05-04 18:06 1.64398 7.41231 811 ft 111 kts 180°
2026-05-04 18:07 1.63672 7.41436 941 ft 111 kts 142°
2026-05-04 18:07 1.63190 7.42020 1070 ft 110 kts 98°
2026-05-04 18:07 1.63179 7.42797 1217 ft 112 kts 87°
2026-05-04 18:07 1.63344 7.43546 1359 ft 112 kts 46°
2026-05-04 18:08 1.64058 7.43962 1556 ft 128 kts 22°
2026-05-04 18:08 1.65046 7.44336 1788 ft 145 kts 21°
2026-05-04 18:08 1.66027 7.44733 1984 ft 156 kts 22°
2026-05-04 18:08 1.67056 7.45166 2171 ft 163 kts 22°
2026-05-04 18:09 1.69217 7.46063 2531 ft 172 kts 22°
2026-05-04 18:09 1.71451 7.46986 2899 ft 174 kts 22°
2026-05-04 18:10 1.72585 7.47454 2989 ft 180 kts 22°
2026-05-04 18:10 1.73768 7.47944 3001 ft 187 kts 22°
2026-05-04 18:10 1.74986 7.48453 3002 ft 192 kts 24°
2026-05-04 18:10 1.76178 7.49079 3001 ft 195 kts 30°
2026-05-04 18:11 1.77364 7.49758 3001 ft 197 kts 29°
2026-05-04 18:11 1.78568 7.50415 3000 ft 197 kts 28°
2026-05-04 18:11 1.79784 7.51057 3000 ft 198 kts 27°
2026-05-04 18:11 1.80997 7.51700 2999 ft 198 kts 28°
2026-05-04 18:12 1.82200 7.52368 2999 ft 197 kts 31°
2026-05-04 18:12 1.83364 7.53090 2999 ft 197 kts 32°
2026-05-04 18:12 1.84528 7.53814 2999 ft 197 kts 31°
2026-05-04 18:12 1.85701 7.54523 2999 ft 197 kts 31°
2026-05-04 18:13 1.86874 7.55227 2999 ft 197 kts 31°
2026-05-04 18:13 1.88046 7.55933 2999 ft 197 kts 31°
2026-05-04 18:13 1.90382 7.57345 2998 ft 194 kts 31°
2026-05-04 18:14 1.91506 7.58025 2994 ft 183 kts 31°
2026-05-04 18:14 1.92566 7.58666 2993 ft 174 kts 31°
2026-05-04 18:14 1.93577 7.59277 2994 ft 167 kts 31°
2026-05-04 18:15 1.95493 7.60433 2989 ft 152 kts 31°
2026-05-04 18:15 1.97311 7.61527 3002 ft 156 kts 31°
2026-05-04 18:15 1.98246 7.62093 3002 ft 158 kts 31°
2026-05-04 18:16 1.99192 7.62666 3001 ft 160 kts 31°
2026-05-04 18:16 2.00115 7.63228 2992 ft 151 kts 31°
2026-05-04 18:16 2.00992 7.63758 2991 ft 144 kts 31°
2026-05-04 18:17 2.02637 7.64750 2992 ft 133 kts 31°
2026-05-04 18:17 2.03387 7.65203 2992 ft 129 kts 31°
2026-05-04 18:17 2.04880 7.66104 2993 ft 122 kts 31°
2026-05-04 18:18 2.05598 7.66537 2993 ft 119 kts 31°
2026-05-04 18:18 2.06297 7.66959 2993 ft 116 kts 31°
2026-05-04 18:18 2.06983 7.67373 2997 ft 115 kts 31°
2026-05-04 18:18 2.07691 7.67798 3013 ft 122 kts 31°
2026-05-04 18:19 2.09226 7.68737 3009 ft 136 kts 31°
2026-05-04 18:19 2.10048 7.69237 3007 ft 140 kts 31°
2026-05-04 18:19 2.10895 7.69751 3005 ft 144 kts 31°
2026-05-04 18:20 2.11763 7.70278 3004 ft 147 kts 31°
2026-05-04 18:20 2.12652 7.70817 3004 ft 151 kts 31°
2026-05-04 18:20 2.13567 7.71372 3004 ft 156 kts 31°
2026-05-04 18:20 2.14505 7.71942 3003 ft 159 kts 31°
2026-05-04 18:21 2.15461 7.72522 3002 ft 162 kts 31°
2026-05-04 18:21 2.16419 7.73123 3001 ft 163 kts 32°
2026-05-04 18:21 2.17381 7.73736 2999 ft 163 kts 32°
2026-05-04 18:21 2.18341 7.74344 2999 ft 163 kts 32°
2026-05-04 18:22 2.19301 7.74949 2999 ft 163 kts 32°
2026-05-04 18:22 2.20258 7.75553 2999 ft 163 kts 32°
2026-05-04 18:22 2.20896 7.75955 2999 ft 162 kts 32°
2026-05-04 18:22 2.22001 7.76653 2999 ft 162 kts 32°
2026-05-04 18:23 2.22955 7.77255 2999 ft 162 kts 32°
2026-05-04 18:23 2.23909 7.77858 2999 ft 162 kts 32°
2026-05-04 18:23 2.24864 7.78461 2999 ft 162 kts 32°
2026-05-04 18:23 2.25818 7.79063 2999 ft 162 kts 32°
2026-05-04 18:24 2.26771 7.79665 2999 ft 162 kts 32°
2026-05-04 18:24 2.27727 7.80269 2999 ft 162 kts 32°
2026-05-04 18:24 2.28683 7.80873 3000 ft 162 kts 32°
2026-05-04 18:24 2.29624 7.81467 3000 ft 162 kts 32°
2026-05-04 18:25 2.30596 7.82081 3001 ft 164 kts 32°
2026-05-04 18:25 2.31552 7.82686 3001 ft 165 kts 32°
2026-05-04 18:25 2.32525 7.83301 3000 ft 166 kts 32°
2026-05-04 18:25 2.33494 7.83915 2999 ft 165 kts 32°
2026-05-04 18:26 2.34460 7.84526 2999 ft 164 kts 32°
2026-05-04 18:26 2.35422 7.85134 2999 ft 163 kts 32°
2026-05-04 18:26 2.36380 7.85740 2999 ft 163 kts 32°
2026-05-04 18:26 2.37350 7.86353 2999 ft 163 kts 32°
2026-05-04 18:27 2.38305 7.86958 2999 ft 162 kts 32°
2026-05-04 18:27 2.39259 7.87562 2999 ft 162 kts 32°
2026-05-04 18:27 2.40213 7.88166 2999 ft 162 kts 32°
2026-05-04 18:27 2.41168 7.88770 2999 ft 162 kts 32°
2026-05-04 18:28 2.42122 7.89374 2999 ft 162 kts 32°
2026-05-04 18:28 2.43073 7.89977 2999 ft 162 kts 32°
2026-05-04 18:28 2.44027 7.90580 2999 ft 162 kts 32°
2026-05-04 18:28 2.44980 7.91184 2999 ft 162 kts 32°
2026-05-04 18:29 2.45934 7.91789 2999 ft 162 kts 32°
2026-05-04 18:29 2.46873 7.92384 3000 ft 162 kts 32°
2026-05-04 18:29 2.47826 7.92988 3000 ft 162 kts 32°
2026-05-04 18:29 2.48778 7.93591 3000 ft 162 kts 32°
2026-05-04 18:30 2.50685 7.94800 3000 ft 162 kts 32°
2026-05-04 18:30 2.51636 7.95404 3000 ft 162 kts 32°
2026-05-04 18:30 2.52590 7.96009 3000 ft 162 kts 32°
2026-05-04 18:31 2.53544 7.96614 3000 ft 162 kts 32°
2026-05-04 18:31 2.54493 7.97216 2998 ft 160 kts 32°
2026-05-04 18:31 2.55433 7.97813 2998 ft 159 kts 32°
2026-05-04 18:31 2.56367 7.98405 2999 ft 158 kts 32°
2026-05-04 18:32 2.57295 7.98994 2999 ft 157 kts 32°
2026-05-04 18:32 2.58217 7.99579 2999 ft 157 kts 32°
2026-05-04 18:32 2.59137 8.00163 2999 ft 156 kts 32°
2026-05-04 18:32 2.60066 8.00727 2999 ft 156 kts 28°
2026-05-04 18:33 2.61036 8.01230 3001 ft 158 kts 27°
2026-05-04 18:33 2.62011 8.01744 3000 ft 159 kts 28°
2026-05-04 18:33 2.62983 8.02272 3000 ft 159 kts 28°
2026-05-04 18:33 2.63959 8.02804 3000 ft 160 kts 28°
2026-05-04 18:34 2.64940 8.03335 3000 ft 160 kts 28°
2026-05-04 18:34 2.65921 8.03866 3000 ft 160 kts 28°
2026-05-04 18:34 2.66903 8.04398 3000 ft 161 kts 28°
2026-05-04 18:34 2.67885 8.04930 3000 ft 161 kts 28°
2026-05-04 18:35 2.68871 8.05464 3000 ft 161 kts 28°
2026-05-04 18:35 2.69860 8.06000 3000 ft 161 kts 28°
2026-05-04 18:35 2.70847 8.06535 3000 ft 161 kts 28°
2026-05-04 18:35 2.71835 8.07070 3000 ft 161 kts 28°
2026-05-04 18:36 2.72826 8.07607 3001 ft 162 kts 28°
2026-05-04 18:36 2.73825 8.08149 3001 ft 164 kts 28°
2026-05-04 18:36 2.74831 8.08695 3000 ft 165 kts 28°
2026-05-04 18:36 2.75841 8.09243 3000 ft 165 kts 28°
2026-05-04 18:37 2.76854 8.09793 3000 ft 166 kts 28°
2026-05-04 18:37 2.77869 8.10343 3000 ft 166 kts 28°
2026-05-04 18:37 2.78886 8.10895 3000 ft 166 kts 28°
2026-05-04 18:37 2.79904 8.11448 3000 ft 167 kts 28°
2026-05-04 18:38 2.80923 8.12001 3000 ft 167 kts 28°
2026-05-04 18:38 2.81941 8.12554 3000 ft 167 kts 28°
2026-05-04 18:38 2.82962 8.13108 3000 ft 167 kts 28°
2026-05-04 18:38 2.83982 8.13662 3000 ft 167 kts 28°
2026-05-04 18:39 2.85004 8.14217 3000 ft 167 kts 28°
2026-05-04 18:39 2.86024 8.14771 3000 ft 167 kts 28°
2026-05-04 18:39 2.87038 8.15342 3000 ft 167 kts 31°
2026-05-04 18:39 2.88033 8.15944 2999 ft 167 kts 32°
2026-05-04 18:40 2.88994 8.16599 3000 ft 167 kts 35°
2026-05-04 18:40 2.89951 8.17259 3000 ft 167 kts 34°
2026-05-04 18:40 2.90915 8.17906 3000 ft 167 kts 34°
2026-05-04 18:40 2.91872 8.18566 3000 ft 167 kts 34°
2026-05-04 18:41 2.92829 8.19229 3000 ft 167 kts 34°
2026-05-04 18:41 2.93787 8.19889 3023 ft 165 kts 34°
2026-05-04 18:41 2.94714 8.20531 3146 ft 159 kts 35°
2026-05-04 18:41 2.95605 8.21171 3265 ft 155 kts 36°
2026-05-04 18:42 2.96472 8.21794 3386 ft 151 kts 36°
2026-05-04 18:42 2.97323 8.22402 3487 ft 150 kts 35°
2026-05-04 18:42 2.98187 8.23020 3502 ft 155 kts 36°
2026-05-04 18:42 2.99082 8.23669 3506 ft 162 kts 37°
2026-05-04 18:43 2.99992 8.24379 3505 ft 168 kts 38°
2026-05-04 18:43 3.00926 8.25111 3503 ft 172 kts 38°
2026-05-04 18:43 3.01884 8.25850 3529 ft 173 kts 37°
2026-05-04 18:43 3.02828 8.26575 3655 ft 169 kts 37°
2026-05-04 18:44 3.03755 8.27286 3777 ft 166 kts 37°
2026-05-04 18:44 3.04362 8.27754 3858 ft 164 kts 37°
2026-05-04 18:44 3.05565 8.28680 4022 ft 162 kts 37°
2026-05-04 18:44 3.06440 8.29368 4144 ft 161 kts 40°
2026-05-04 18:45 3.07284 8.30103 4268 ft 160 kts 41°
2026-05-04 18:45 3.08118 8.30835 4392 ft 159 kts 41°
2026-05-04 18:45 3.08957 8.31555 4516 ft 158 kts 40°
2026-05-04 18:45 3.09809 8.32250 4640 ft 157 kts 37°
2026-05-04 18:46 3.10671 8.32957 4767 ft 157 kts 40°
2026-05-04 18:46 3.11492 8.33674 4891 ft 156 kts 41°
2026-05-04 18:46 3.12315 8.34387 5027 ft 155 kts 40°
2026-05-04 18:46 3.13137 8.35095 5157 ft 154 kts 41°
2026-05-04 18:47 3.13935 8.35823 5282 ft 154 kts 45°
2026-05-04 18:47 3.14667 8.36592 5406 ft 154 kts 47°
2026-05-04 18:47 3.15406 8.37371 5530 ft 154 kts 46°
2026-05-04 18:47 3.16154 8.38137 5655 ft 153 kts 45°
2026-05-04 18:48 3.16903 8.38901 5779 ft 153 kts 45°
2026-05-04 18:48 3.17666 8.39645 5904 ft 152 kts 47°
2026-05-04 18:48 3.18385 8.40433 6029 ft 152 kts 46°
2026-05-04 18:48 3.19173 8.41163 6158 ft 154 kts 40°
2026-05-04 18:49 3.20007 8.41873 6288 ft 156 kts 41°
2026-05-04 18:49 3.20838 8.42606 6427 ft 157 kts 41°
2026-05-04 18:49 3.21684 8.43363 6498 ft 163 kts 41°
2026-05-04 18:49 3.22573 8.44158 6505 ft 170 kts 41°
2026-05-04 18:50 3.23493 8.44967 6504 ft 175 kts 40°
2026-05-04 18:50 3.24468 8.45768 6502 ft 179 kts 39°
2026-05-04 18:50 3.25483 8.46598 6501 ft 182 kts 39°
2026-05-04 18:50 3.26505 8.47446 6501 ft 183 kts 39°
2026-05-04 18:51 3.27533 8.48301 6500 ft 184 kts 39°
2026-05-04 18:51 3.28565 8.49158 6500 ft 185 kts 39°
2026-05-04 18:51 3.29599 8.50027 6500 ft 186 kts 41°
2026-05-04 18:51 3.30579 8.50968 6500 ft 186 kts 46°
2026-05-04 18:52 3.31481 8.51926 6500 ft 186 kts 47°
2026-05-04 18:52 3.32391 8.52887 6500 ft 186 kts 46°
2026-05-04 18:52 3.33308 8.53828 6500 ft 186 kts 45°
2026-05-04 18:52 3.34219 8.54756 6500 ft 186 kts 45°
2026-05-04 18:53 3.35150 8.55676 6499 ft 186 kts 41°
2026-05-04 18:53 3.36165 8.56475 6500 ft 186 kts 36°
2026-05-04 18:53 3.37208 8.57259 6500 ft 186 kts 38°
2026-05-04 18:53 3.38216 8.58066 6498 ft 187 kts 43°
2026-05-04 18:54 3.39098 8.59027 6500 ft 186 kts 49°
2026-05-04 18:54 3.39932 8.59988 6495 ft 181 kts 48°
2026-05-04 18:54 3.40733 8.60934 6493 ft 173 kts 52°
2026-05-04 18:54 3.41435 8.61887 6492 ft 164 kts 54°
2026-05-04 18:55 3.42099 8.62781 6493 ft 158 kts 52°
2026-05-04 18:55 3.43414 8.64490 6495 ft 149 kts 52°
2026-05-04 18:55 3.44044 8.65310 6495 ft 146 kts 52°
2026-05-04 18:56 3.44652 8.66103 6496 ft 144 kts 52°
2026-05-04 18:56 3.45256 8.66890 6496 ft 141 kts 52°
2026-05-04 18:56 3.45853 8.67668 6497 ft 140 kts 52°
2026-05-04 18:56 3.46447 8.68443 6497 ft 138 kts 52°
2026-05-04 18:57 3.47028 8.69201 6497 ft 137 kts 52°
2026-05-04 18:57 3.47605 8.69954 6498 ft 136 kts 52°
2026-05-04 18:57 3.48327 8.70513 6491 ft 133 kts
2026-05-04 18:57 3.49210 8.70334 6498 ft 130 kts 336°
2026-05-04 18:58 3.50044 8.69942 6504 ft 133 kts 335°
2026-05-04 18:58 3.50907 8.69565 6506 ft 138 kts 338°
2026-05-04 18:58 3.51839 8.69197 6515 ft 149 kts 340°
2026-05-04 18:58 3.52858 8.68846 6511 ft 158 kts 340°
2026-05-04 18:59 3.53910 8.68435 6507 ft 165 kts 337°
2026-05-04 18:59 3.54984 8.67982 6504 ft 170 kts 337°
2026-05-04 18:59 3.56089 8.67561 6372 ft 169 kts 343°
2026-05-04 18:59 3.57161 8.67297 6199 ft 150 kts 347°
2026-05-04 19:00 3.58114 8.67066 6030 ft 136 kts 345°
2026-05-04 19:00 3.58983 8.66833 5812 ft 123 kts 345°
2026-05-04 19:00 3.59793 8.66691 5561 ft 113 kts 352°
2026-05-04 19:00 3.60577 8.66573 5297 ft 119 kts 350°
2026-05-04 19:01 3.61460 8.66426 5023 ft 137 kts 351°
2026-05-04 19:01 3.62451 8.66269 4667 ft 150 kts 351°
2026-05-04 19:01 3.63507 8.66105 4291 ft 154 kts 351°
2026-05-04 19:01 3.64581 8.66177 3913 ft 156 kts 22°
2026-05-04 19:02 3.65576 8.66662 3535 ft 159 kts 26°
2026-05-04 19:02 3.66591 8.67089 3155 ft 155 kts 20°
2026-05-04 19:02 3.67597 8.67456 2776 ft 153 kts 21°
2026-05-04 19:02 3.68554 8.67932 2396 ft 153 kts 30°
2026-05-04 19:03 3.69529 8.68488 2021 ft 164 kts 29°
2026-05-04 19:03 3.70554 8.69056 1648 ft 171 kts 30°
2026-05-04 19:03 3.71601 8.69667 1241 ft 177 kts 30°
2026-05-04 19:03 3.72668 8.70293 1006 ft 161 kts 30°
2026-05-04 19:04 3.73546 8.70828 948 ft 122 kts 33°
2026-05-04 19:04 3.74157 8.71258 851 ft 86 kts 36°
2026-05-04 19:04 3.74705 8.71627 793 ft 94 kts 35°
2026-05-04 19:04 3.75259 8.72027 774 ft 94 kts 37°
2026-05-04 19:05 3.75774 8.72465 765 ft 95 kts 42°
2026-05-04 19:05 3.76295 8.72933 767 ft 94 kts 41°
2026-05-04 19:05 3.76769 8.73377 725 ft 91 kts 44°
2026-05-04 19:05 3.77232 8.73827 686 ft 96 kts 43°
2026-05-04 19:06 3.77740 8.74319 762 ft 105 kts 44°
2026-05-04 19:06 3.78272 8.74843 879 ft 107 kts 44°
2026-05-04 19:06 3.78814 8.75369 996 ft 109 kts 44°
2026-05-04 19:06 3.79398 8.75905 1003 ft 117 kts 27°
2026-05-04 19:07 3.80182 8.75849 994 ft 119 kts 320°
2026-05-04 19:07 3.80364 8.75078 961 ft 120 kts 239°
2026-05-04 19:07 3.79791 8.74518 874 ft 106 kts 216°
2026-05-04 19:07 3.79198 8.74068 615 ft 101 kts 216°
2026-05-04 19:08 3.78636 8.73648 515 ft 95 kts 221°
2026-05-04 19:08 3.78130 8.73186 384 ft 93 kts 222°
2026-05-04 19:08 3.77625 8.72740 286 ft 91 kts 221°
2026-05-04 19:08 3.77124 8.72298 199 ft 87 kts 222°
2026-05-04 19:09 3.76666 8.71883 119 ft 83 kts 220°
2026-05-04 19:09 3.76266 8.71528 79 ft 64 kts 223°
2026-05-04 19:09 3.75967 8.71258 79 ft 52 kts 222°
2026-05-04 19:09 3.75725 8.71038 79 ft 35 kts 210°
2026-05-04 19:10 3.75573 8.71058 79 ft 15 kts 126°
2026-05-04 19:10 3.75485 8.71065 79 ft 15 kts 212°
2026-05-04 19:10 3.75400 8.70992 79 ft 16 kts 220°
2026-05-04 19:10 3.75307 8.70913 79 ft 17 kts 221°
2026-05-04 19:11 3.75213 8.70827 79 ft 18 kts 229°
2026-05-04 19:11 3.75116 8.70739 79 ft 17 kts 215°
2026-05-04 19:11 3.75030 8.70662 79 ft 15 kts 222°
2026-05-04 19:11 3.74953 8.70596 79 ft 13 kts 235°
2026-05-04 19:12 3.74890 8.70537 79 ft 11 kts 215°
2026-05-04 19:12 3.74830 8.70605 79 ft 5 kts 78°
2026-05-04 19:12 3.74831 8.70640 79 ft 4 kts 98°
2026-05-04 19:13 3.74817 8.70657 79 ft 3 kts 188°
2026-05-04 19:13 3.74808 8.70652 79 ft 0 kts 261°
2026-05-04 19:13 3.74808 8.70650 79 ft 0 kts 268°